SXB6990 SBGR-SBTC

Flight info

Callsign SXB6990
Flight time 1h 32m
Altitude 37000
Route VUMEV UZ14 DALOX
Aircraft A320/M-SDE2FGHIM1RWXY/SB1

Departure

Time 2026-04-22 21:54
Airport São Paulo/Guarulhos–Governor André Franco Montoro International Airport (SBGR)

Arrival

Time 2026-04-22 23:27
Airport Una-Comandatuba Airport (SBTC)
Time Latitude Longitude Altitude Speed Heading
2026-04-22 21:46 -23.42943 -46.48860 2465 ft 0 kts 276°
2026-04-22 21:49 -23.42945 -46.48845 2467 ft 4 kts 276°
2026-04-22 21:49 -23.42947 -46.48816 2465 ft 4 kts 276°
2026-04-22 21:50 -23.42949 -46.48787 2465 ft 4 kts 259°
2026-04-22 21:50 -23.42939 -46.48764 2465 ft 4 kts 212°
2026-04-22 21:50 -23.42920 -46.48757 2465 ft 3 kts 185°
2026-04-22 21:50 -23.42894 -46.48754 2465 ft 3 kts 186°
2026-04-22 21:51 -23.42891 -46.48754 2465 ft 0 kts 186°
2026-04-22 21:52 -23.42932 -46.48758 2465 ft 15 kts 186°
2026-04-22 21:52 -23.43075 -46.48772 2465 ft 23 kts 185°
2026-04-22 21:52 -23.43171 -46.48706 2468 ft 18 kts 95°
2026-04-22 21:53 -23.43183 -46.48553 2465 ft 22 kts 95°
2026-04-22 21:53 -23.43215 -46.48400 2467 ft 20 kts 146°
2026-04-22 21:53 -23.43351 -46.48345 2464 ft 23 kts 162°
2026-04-22 21:53 -23.43400 -46.48229 2462 ft 17 kts 71°
2026-04-22 21:54 -23.43338 -46.47997 2466 ft 66 kts 73°
2026-04-22 21:54 -23.43130 -46.47226 2462 ft 143 kts 74°
2026-04-22 21:54 -23.42821 -46.46018 2830 ft 171 kts 73°
2026-04-22 21:54 -23.42455 -46.44760 3724 ft 177 kts 75°
2026-04-22 21:55 -23.42074 -46.43468 4581 ft 187 kts 73°
2026-04-22 21:55 -23.41662 -46.42057 5044 ft 205 kts 73°
2026-04-22 21:55 -23.41206 -46.40491 5232 ft 229 kts 73°
2026-04-22 21:55 -23.40699 -46.38749 5523 ft 253 kts 72°
2026-04-22 21:56 -23.40141 -46.36839 5920 ft 274 kts 70°
2026-04-22 21:56 -23.39254 -46.34972 6591 ft 282 kts 56°
2026-04-22 21:56 -23.38206 -46.33172 7332 ft 286 kts 57°
2026-04-22 21:56 -23.37118 -46.31301 8107 ft 291 kts 58°
2026-04-22 21:57 -23.36030 -46.29429 8868 ft 294 kts 59°
2026-04-22 21:57 -23.34931 -46.27536 9627 ft 297 kts 59°
2026-04-22 21:57 -23.33835 -46.25644 10295 ft 304 kts 60°
2026-04-22 21:57 -23.32668 -46.23627 10498 ft 327 kts 60°
2026-04-22 21:58 -23.31422 -46.21474 10804 ft 343 kts 59°
2026-04-22 21:58 -23.30133 -46.19257 11368 ft 350 kts 59°
2026-04-22 21:58 -23.28821 -46.17002 12023 ft 354 kts 59°
2026-04-22 21:58 -23.27501 -46.14734 12678 ft 357 kts 58°
2026-04-22 21:59 -23.26164 -46.12436 13325 ft 361 kts 59°
2026-04-22 21:59 -23.24815 -46.10118 13962 ft 365 kts 59°
2026-04-22 21:59 -23.23452 -46.07777 14505 ft 369 kts 58°
2026-04-22 21:59 -23.21834 -46.05595 15035 ft 374 kts 45°
2026-04-22 22:00 -23.19804 -46.03803 15572 ft 378 kts 33°
2026-04-22 22:00 -23.17612 -46.02201 16106 ft 382 kts 36°
2026-04-22 22:00 -23.15543 -46.00423 16636 ft 385 kts 40°
2026-04-22 22:00 -23.13492 -45.98470 17170 ft 389 kts 42°
2026-04-22 22:01 -23.11509 -45.96507 17691 ft 393 kts 42°
2026-04-22 22:01 -23.09478 -45.94498 18210 ft 397 kts 42°
2026-04-22 22:01 -23.07406 -45.92496 18697 ft 400 kts 41°
2026-04-22 22:01 -23.05297 -45.90508 19128 ft 404 kts 40°
2026-04-22 22:02 -23.03150 -45.88519 19571 ft 407 kts 40°
2026-04-22 22:02 -23.00974 -45.86520 20005 ft 411 kts 40°
2026-04-22 22:02 -22.98778 -45.84509 20426 ft 415 kts 40°
2026-04-22 22:02 -22.96559 -45.82477 20874 ft 419 kts 40°
2026-04-22 22:03 -22.94320 -45.80424 21297 ft 423 kts 40°
2026-04-22 22:03 -22.92066 -45.78351 21716 ft 427 kts 40°
2026-04-22 22:03 -22.89795 -45.76257 22132 ft 431 kts 40°
2026-04-22 22:03 -22.87503 -45.74141 22565 ft 435 kts 40°
2026-04-22 22:04 -22.85193 -45.72012 22975 ft 438 kts 40°
2026-04-22 22:04 -22.82859 -45.69863 23368 ft 442 kts 40°
2026-04-22 22:04 -22.80504 -45.67699 23741 ft 446 kts 39°
2026-04-22 22:04 -22.78129 -45.65521 24075 ft 449 kts 39°
2026-04-22 22:05 -22.75738 -45.63330 24424 ft 451 kts 39°
2026-04-22 22:05 -22.73337 -45.61132 24762 ft 453 kts 39°
2026-04-22 22:05 -22.70924 -45.58919 25116 ft 455 kts 39°
2026-04-22 22:05 -22.68507 -45.56698 25446 ft 457 kts 40°
2026-04-22 22:06 -22.66080 -45.54469 25767 ft 459 kts 39°
2026-04-22 22:06 -22.63629 -45.52224 26079 ft 461 kts 39°
2026-04-22 22:06 -22.61205 -45.50007 26383 ft 463 kts 40°
2026-04-22 22:06 -22.58738 -45.47751 26670 ft 465 kts 39°
2026-04-22 22:07 -22.56258 -45.45480 26971 ft 468 kts 40°
2026-04-22 22:07 -22.53771 -45.43201 27271 ft 470 kts 40°
2026-04-22 22:07 -22.51273 -45.40917 27556 ft 472 kts 39°
2026-04-22 22:07 -22.48762 -45.38626 27846 ft 474 kts 39°
2026-04-22 22:08 -22.46236 -45.36322 28124 ft 476 kts 40°
2026-04-22 22:08 -22.43697 -45.34005 28407 ft 478 kts 40°
2026-04-22 22:08 -22.41148 -45.31680 28692 ft 480 kts 40°
2026-04-22 22:08 -22.38593 -45.29347 28981 ft 481 kts 40°
2026-04-22 22:09 -22.36030 -45.27010 29280 ft 483 kts 40°
2026-04-22 22:09 -22.33456 -45.24666 29550 ft 485 kts 40°
2026-04-22 22:09 -22.30871 -45.22316 29795 ft 487 kts 40°
2026-04-22 22:09 -22.28272 -45.19951 30047 ft 489 kts 40°
2026-04-22 22:10 -22.25664 -45.17580 30252 ft 492 kts 40°
2026-04-22 22:10 -22.23042 -45.15198 30447 ft 493 kts 40°
2026-04-22 22:10 -22.20414 -45.12807 30652 ft 495 kts 40°
2026-04-22 22:10 -22.17774 -45.10407 30859 ft 496 kts 40°
2026-04-22 22:11 -22.15131 -45.08007 31065 ft 498 kts 40°
2026-04-22 22:11 -22.12478 -45.05600 31260 ft 499 kts 40°
2026-04-22 22:11 -22.09818 -45.03189 31474 ft 499 kts 40°
2026-04-22 22:11 -22.07164 -45.00784 31752 ft 499 kts 40°
2026-04-22 22:12 -22.04517 -44.98385 32044 ft 497 kts 40°
2026-04-22 22:12 -22.01907 -44.96024 32344 ft 496 kts 40°
2026-04-22 22:12 -21.99270 -44.93640 32627 ft 495 kts 40°
2026-04-22 22:12 -21.96633 -44.91254 32921 ft 494 kts 40°
2026-04-22 22:13 -21.94002 -44.88875 33206 ft 493 kts 40°
2026-04-22 22:13 -21.91377 -44.86501 33493 ft 492 kts 40°
2026-04-22 22:13 -21.88749 -44.84129 33783 ft 492 kts 40°
2026-04-22 22:13 -21.86134 -44.81772 34119 ft 489 kts 40°
2026-04-22 22:14 -21.83529 -44.79426 34399 ft 489 kts 40°
2026-04-22 22:14 -21.80920 -44.77076 34623 ft 489 kts 40°
2026-04-22 22:14 -21.78314 -44.74727 34842 ft 489 kts 40°
2026-04-22 22:14 -21.75710 -44.72381 35061 ft 489 kts 40°
2026-04-22 22:15 -21.73098 -44.70030 35277 ft 489 kts 40°
2026-04-22 22:15 -21.70494 -44.67686 35481 ft 489 kts 40°
2026-04-22 22:15 -21.67887 -44.65339 35728 ft 487 kts 40°
2026-04-22 22:15 -21.65285 -44.62997 35947 ft 487 kts 40°
2026-04-22 22:16 -21.62687 -44.60660 36149 ft 487 kts 40°
2026-04-22 22:16 -21.60089 -44.58328 36319 ft 488 kts 40°
2026-04-22 22:16 -21.57483 -44.55991 36471 ft 488 kts 40°
2026-04-22 22:16 -21.54879 -44.53656 36635 ft 488 kts 40°
2026-04-22 22:17 -21.52273 -44.51322 36810 ft 488 kts 40°
2026-04-22 22:17 -21.49672 -44.48993 37028 ft 487 kts 40°
2026-04-22 22:17 -21.47105 -44.46692 37101 ft 486 kts 40°
2026-04-22 22:18 -21.41929 -44.42051 37134 ft 484 kts 40°
2026-04-22 22:18 -21.36752 -44.37412 37122 ft 485 kts 40°
2026-04-22 22:19 -21.31560 -44.32770 37113 ft 484 kts 40°
2026-04-22 22:19 -21.26384 -44.28155 37121 ft 484 kts 40°
2026-04-22 22:20 -21.21206 -44.23543 37123 ft 484 kts 40°
2026-04-22 22:20 -21.16022 -44.18930 37120 ft 484 kts 40°
2026-04-22 22:21 -21.10834 -44.14314 37119 ft 485 kts 40°
2026-04-22 22:21 -21.05648 -44.09691 37123 ft 485 kts 40°
2026-04-22 22:22 -21.00453 -44.05067 37125 ft 485 kts 40°
2026-04-22 22:22 -20.95285 -44.00484 37133 ft 485 kts 40°
2026-04-22 22:23 -20.90087 -43.95871 37129 ft 486 kts 40°
2026-04-22 22:23 -20.84880 -43.91265 37132 ft 486 kts 40°
2026-04-22 22:24 -20.79682 -43.86662 37137 ft 486 kts 40°
2026-04-22 22:24 -20.74474 -43.82059 37142 ft 485 kts 40°
2026-04-22 22:25 -20.69273 -43.77462 37144 ft 485 kts 41°
2026-04-22 22:25 -20.64081 -43.72864 37147 ft 485 kts 41°
2026-04-22 22:26 -20.58880 -43.68275 37139 ft 485 kts 41°
2026-04-22 22:26 -20.53678 -43.63701 37143 ft 484 kts 41°
2026-04-22 22:27 -20.48486 -43.59140 37147 ft 484 kts 41°
2026-04-22 22:27 -20.43328 -43.54606 37142 ft 483 kts 41°
2026-04-22 22:28 -20.38149 -43.50040 37137 ft 483 kts 41°
2026-04-22 22:28 -20.32967 -43.45484 37142 ft 483 kts 41°
2026-04-22 22:29 -20.28622 -43.41675 37142 ft 482 kts 41°
2026-04-22 22:29 -20.23479 -43.37161 37137 ft 482 kts 41°
2026-04-22 22:30 -20.18293 -43.32622 37134 ft 482 kts 41°
2026-04-22 22:30 -20.13093 -43.28097 37129 ft 482 kts 41°
2026-04-22 22:31 -20.07915 -43.23563 37131 ft 482 kts 41°
2026-04-22 22:31 -20.02728 -43.19024 37128 ft 482 kts 41°
2026-04-22 22:32 -19.97532 -43.14501 37128 ft 482 kts 41°
2026-04-22 22:32 -19.92353 -43.09986 37124 ft 482 kts 41°
2026-04-22 22:33 -19.87173 -43.05455 37128 ft 482 kts 41°
2026-04-22 22:33 -19.81990 -43.00940 37102 ft 481 kts 41°
2026-04-22 22:34 -19.76837 -42.96471 37117 ft 481 kts 41°
2026-04-22 22:34 -19.71655 -42.91978 37120 ft 481 kts 41°
2026-04-22 22:35 -19.66482 -42.87479 37125 ft 481 kts 41°
2026-04-22 22:35 -19.61305 -42.82988 37126 ft 481 kts 41°
2026-04-22 22:36 -19.56120 -42.78494 37123 ft 481 kts 41°
2026-04-22 22:36 -19.50942 -42.74004 37117 ft 481 kts 41°
2026-04-22 22:37 -19.45761 -42.69523 37115 ft 481 kts 41°
2026-04-22 22:37 -19.40581 -42.65042 37111 ft 480 kts 41°
2026-04-22 22:38 -19.35405 -42.60567 37115 ft 480 kts 41°
2026-04-22 22:38 -19.30224 -42.56105 37111 ft 480 kts 41°
2026-04-22 22:39 -19.25047 -42.51645 37110 ft 480 kts 41°
2026-04-22 22:39 -19.19872 -42.47181 37110 ft 480 kts 41°
2026-04-22 22:40 -19.14695 -42.42727 37109 ft 480 kts 41°
2026-04-22 22:40 -19.09512 -42.38285 37109 ft 480 kts 41°
2026-04-22 22:41 -19.04370 -42.33865 37101 ft 479 kts 41°
2026-04-22 22:41 -18.99202 -42.29416 37098 ft 479 kts 41°
2026-04-22 22:42 -18.94042 -42.24965 37100 ft 478 kts 41°
2026-04-22 22:42 -18.88874 -42.20531 37100 ft 478 kts 41°
2026-04-22 22:43 -18.83693 -42.16111 37097 ft 479 kts 41°
2026-04-22 22:43 -18.78520 -42.11688 37098 ft 479 kts 41°
2026-04-22 22:44 -18.73338 -42.07266 37098 ft 478 kts 41°
2026-04-22 22:44 -18.68165 -42.02856 37089 ft 478 kts 41°
2026-04-22 22:45 -18.63005 -41.98441 37095 ft 478 kts 41°
2026-04-22 22:45 -18.57841 -41.94032 37091 ft 477 kts 42°
2026-04-22 22:46 -18.52716 -41.89652 37090 ft 477 kts 42°
2026-04-22 22:46 -18.47555 -41.85256 37088 ft 477 kts 41°
2026-04-22 22:47 -18.42391 -41.80868 37088 ft 477 kts 41°
2026-04-22 22:47 -18.37226 -41.76482 37094 ft 476 kts 42°
2026-04-22 22:48 -18.32073 -41.72103 37090 ft 476 kts 42°
2026-04-22 22:48 -18.26913 -41.67715 37091 ft 476 kts 42°
2026-04-22 22:49 -18.21756 -41.63337 37090 ft 476 kts 42°
2026-04-22 22:49 -18.16587 -41.58966 37094 ft 477 kts 42°
2026-04-22 22:50 -18.11453 -41.54614 37100 ft 477 kts 42°
2026-04-22 22:50 -18.06289 -41.50236 37102 ft 477 kts 42°
2026-04-22 22:51 -18.01115 -41.45866 37102 ft 477 kts 42°
2026-04-22 22:51 -17.95938 -41.41494 37103 ft 477 kts 42°
2026-04-22 22:52 -17.90758 -41.37118 37109 ft 477 kts 42°
2026-04-22 22:52 -17.85585 -41.32745 37113 ft 477 kts 42°
2026-04-22 22:53 -17.80408 -41.28378 37117 ft 478 kts 42°
2026-04-22 22:53 -17.75219 -41.24009 37111 ft 478 kts 42°
2026-04-22 22:54 -17.70035 -41.19646 37110 ft 478 kts 42°
2026-04-22 22:54 -17.64852 -41.15285 37110 ft 478 kts 42°
2026-04-22 22:55 -17.59667 -41.10925 37112 ft 478 kts 42°
2026-04-22 22:55 -17.51891 -41.04395 37113 ft 477 kts 42°
2026-04-22 22:56 -17.46739 -41.00071 37117 ft 478 kts 42°
2026-04-22 22:56 -17.41550 -40.95729 37119 ft 477 kts 42°
2026-04-22 22:57 -17.36363 -40.91381 37122 ft 478 kts 42°
2026-04-22 22:57 -17.31179 -40.87040 37121 ft 477 kts 42°
2026-04-22 22:58 -17.25990 -40.82707 37124 ft 477 kts 42°
2026-04-22 22:58 -17.20807 -40.78382 37124 ft 476 kts 42°
2026-04-22 22:59 -17.15633 -40.74056 37124 ft 476 kts 42°
2026-04-22 22:59 -17.10461 -40.69737 37122 ft 476 kts 42°
2026-04-22 23:00 -17.05283 -40.65421 37129 ft 476 kts 42°
2026-04-22 23:00 -17.00106 -40.61102 37128 ft 476 kts 42°
2026-04-22 23:01 -16.94921 -40.56786 37129 ft 476 kts 42°
2026-04-22 23:01 -16.89780 -40.52495 37135 ft 476 kts 42°
2026-04-22 23:02 -16.84601 -40.48181 37138 ft 476 kts 42°
2026-04-22 23:02 -16.79410 -40.43880 37142 ft 476 kts 42°
2026-04-22 23:03 -16.74217 -40.39577 37143 ft 476 kts 42°
2026-04-22 23:03 -16.69033 -40.35274 37149 ft 477 kts 42°
2026-04-22 23:04 -16.63843 -40.30967 37147 ft 476 kts 42°
2026-04-22 23:04 -16.58659 -40.26667 37151 ft 476 kts 42°
2026-04-22 23:05 -16.53474 -40.22374 37144 ft 477 kts 42°
2026-04-22 23:05 -16.48278 -40.18072 37140 ft 477 kts 42°
2026-04-22 23:06 -16.45680 -40.15924 36760 ft 479 kts 42°
2026-04-22 23:06 -16.43042 -40.13747 35611 ft 488 kts 42°
2026-04-22 23:06 -16.40362 -40.11533 34659 ft 493 kts 42°
2026-04-22 23:06 -16.37679 -40.09321 33927 ft 491 kts 42°
2026-04-22 23:07 -16.35009 -40.07119 33175 ft 488 kts 41°
2026-04-22 23:07 -16.32392 -40.04961 32533 ft 484 kts 41°
2026-04-22 23:07 -16.29727 -40.02761 31921 ft 480 kts 41°
2026-04-22 23:07 -16.27122 -40.00612 31301 ft 476 kts 41°
2026-04-22 23:08 -16.24572 -39.98511 30717 ft 472 kts 40°
2026-04-22 23:08 -16.22004 -39.96395 30166 ft 468 kts 40°
2026-04-22 23:08 -16.19460 -39.94301 29562 ft 464 kts 40°
2026-04-22 23:08 -16.16944 -39.92229 28993 ft 459 kts 40°
2026-04-22 23:09 -16.14461 -39.90180 28460 ft 453 kts 40°
2026-04-22 23:09 -16.12004 -39.88150 27941 ft 448 kts 40°
2026-04-22 23:09 -16.09582 -39.86153 27429 ft 443 kts 39°
2026-04-22 23:09 -16.07179 -39.84178 26931 ft 438 kts 39°
2026-04-22 23:10 -16.04801 -39.82227 26435 ft 433 kts 39°
2026-04-22 23:10 -16.02452 -39.80300 25930 ft 427 kts 39°
2026-04-22 23:10 -16.00147 -39.78404 25117 ft 419 kts 39°
2026-04-22 23:10 -15.97887 -39.76545 24371 ft 409 kts 38°
2026-04-22 23:11 -15.95680 -39.74731 23634 ft 400 kts 38°
2026-04-22 23:11 -15.93515 -39.72949 22718 ft 394 kts 38°
2026-04-22 23:11 -15.91384 -39.71195 21845 ft 388 kts 38°
2026-04-22 23:11 -15.89314 -39.69494 21217 ft 378 kts 38°
2026-04-22 23:12 -15.87258 -39.67805 20755 ft 370 kts 38°
2026-04-22 23:12 -15.85268 -39.66172 20287 ft 369 kts 37°
2026-04-22 23:12 -15.83257 -39.64527 19833 ft 368 kts 37°
2026-04-22 23:12 -15.81249 -39.62886 19361 ft 367 kts 37°
2026-04-22 23:13 -15.79222 -39.61229 18898 ft 366 kts 37°
2026-04-22 23:13 -15.77250 -39.59613 18445 ft 366 kts 37°
2026-04-22 23:13 -15.75254 -39.57979 17941 ft 365 kts 37°
2026-04-22 23:13 -15.73267 -39.56350 17492 ft 363 kts 37°
2026-04-22 23:14 -15.71290 -39.54730 17045 ft 361 kts 37°
2026-04-22 23:14 -15.69325 -39.53121 16601 ft 359 kts 37°
2026-04-22 23:14 -15.67369 -39.51518 16171 ft 357 kts 37°
2026-04-22 23:14 -15.65424 -39.49923 15729 ft 356 kts 37°
2026-04-22 23:15 -15.63482 -39.48333 15288 ft 354 kts 37°
2026-04-22 23:15 -15.61553 -39.46758 14864 ft 353 kts 36°
2026-04-22 23:15 -15.59628 -39.45186 14428 ft 351 kts 36°
2026-04-22 23:15 -15.57713 -39.43625 14060 ft 348 kts 36°
2026-04-22 23:16 -15.55811 -39.42071 13642 ft 346 kts 36°
2026-04-22 23:16 -15.53923 -39.40528 13165 ft 344 kts 36°
2026-04-22 23:16 -15.52063 -39.39009 12745 ft 340 kts 37°
2026-04-22 23:16 -15.50228 -39.37509 12269 ft 331 kts 37°
2026-04-22 23:17 -15.48458 -39.36062 11816 ft 317 kts 37°
2026-04-22 23:17 -15.46764 -39.34680 11416 ft 303 kts 38°
2026-04-22 23:17 -15.45138 -39.33350 11020 ft 291 kts 38°
2026-04-22 23:17 -15.43579 -39.32076 10649 ft 281 kts 38°
2026-04-22 23:18 -15.42060 -39.30836 10278 ft 281 kts 38°
2026-04-22 23:18 -15.40507 -39.29568 10150 ft 289 kts 39°
2026-04-22 23:18 -15.38917 -39.28271 9942 ft 293 kts 39°
2026-04-22 23:18 -15.37831 -39.27385 9640 ft 294 kts 39°
2026-04-22 23:19 -15.35709 -39.25660 9130 ft 291 kts 39°
2026-04-22 23:19 -15.34637 -39.24788 8875 ft 290 kts 39°
2026-04-22 23:19 -15.33055 -39.23502 8503 ft 288 kts 39°
2026-04-22 23:19 -15.31506 -39.22242 8140 ft 286 kts 39°
2026-04-22 23:20 -15.29943 -39.20970 7770 ft 285 kts 40°
2026-04-22 23:20 -15.28390 -39.19703 7404 ft 283 kts 40°
2026-04-22 23:20 -15.26324 -39.18018 6914 ft 282 kts 40°
2026-04-22 23:20 -15.25302 -39.17185 6685 ft 281 kts 40°
2026-04-22 23:21 -15.23768 -39.15938 6295 ft 279 kts 40°
2026-04-22 23:21 -15.22252 -39.14708 5932 ft 276 kts 40°
2026-04-22 23:21 -15.20753 -39.13486 5576 ft 272 kts 43°
2026-04-22 23:21 -15.19522 -39.12043 5222 ft 264 kts 63°
2026-04-22 23:22 -15.18838 -39.10317 4877 ft 256 kts 81°
2026-04-22 23:22 -15.18622 -39.08507 4486 ft 253 kts 87°
2026-04-22 23:22 -15.18447 -39.06700 4111 ft 252 kts 86°
2026-04-22 23:22 -15.18268 -39.04907 3747 ft 249 kts 86°
2026-04-22 23:23 -15.18337 -39.03165 3420 ft 239 kts 113°
2026-04-22 23:23 -15.19316 -39.01861 3084 ft 230 kts 149°
2026-04-22 23:23 -15.20826 -39.01437 2771 ft 227 kts 175°
2026-04-22 23:23 -15.22385 -39.01311 2452 ft 221 kts 174°
2026-04-22 23:24 -15.23858 -39.01159 2158 ft 205 kts 173°
2026-04-22 23:24 -15.25215 -39.01007 1872 ft 187 kts 172°
2026-04-22 23:24 -15.26437 -39.00864 1615 ft 167 kts 174°
2026-04-22 23:24 -15.27519 -39.00805 1489 ft 147 kts 176°
2026-04-22 23:25 -15.28502 -39.00752 1240 ft 137 kts 172°
2026-04-22 23:25 -15.29433 -39.00592 1015 ft 134 kts 166°
2026-04-22 23:25 -15.30343 -39.00395 924 ft 133 kts 167°
2026-04-22 23:25 -15.31258 -39.00274 789 ft 133 kts 172°
2026-04-22 23:26 -15.32169 -39.00225 593 ft 132 kts 175°
2026-04-22 23:26 -15.33077 -39.00138 320 ft 131 kts 169°
2026-04-22 23:26 -15.33982 -39.00026 207 ft 132 kts 171°
2026-04-22 23:26 -15.34890 -38.99926 27 ft 125 kts 173°
2026-04-22 23:27 -15.35535 -38.99853 19 ft 32 kts 174°
2026-04-22 23:27 -15.35681 -38.99840 20 ft 19 kts 175°
2026-04-22 23:27 -15.35734 -38.99778 18 ft 14 kts 80°
2026-04-22 23:27 -15.35724 -38.99680 19 ft 14 kts 90°
2026-04-22 23:28 -15.35754 -38.99632 18 ft 6 kts 110°
2026-04-22 23:28 -15.35745 -38.99612 20 ft 1 kts 52°
2026-04-22 23:28 -15.35742 -38.99609 20 ft 0 kts 52°